| time (UTC) | temp F | wind direction | speed knots | gust knots | rain 1hr in | rain 24hr in | rain mn in | humidity % | barometer mb |
| 20260504214956 | 79 | 67 | 2.6 | 3.5 | 0.00 | 0.00 | 0.00 | 38 | 1010.9 |
| 20260504214452 | 78 | 286 | 0.9 | 3.5 | 0.00 | 0.00 | 0.00 | 39 | 1011.1 |
| 20260504213949 | 79 | 112 | 0.0 | 2.6 | 0.00 | 0.00 | 0.00 | 40 | 1010.9 |
| 20260504213445 | 78 | 88 | 0.0 | 1.7 | 0.00 | 0.00 | 0.00 | 42 | 1010.9 |
| 20260504212943 | 78 | 102 | 0.9 | 3.5 | 0.00 | 0.00 | 0.00 | 41 | 1010.8 |
| 20260504212438 | 78 | 100 | 0.9 | 3.5 | 0.00 | 0.00 | 0.00 | 40 | 1011.1 |
| 20260504211936 | 78 | 96 | 0.9 | 2.6 | 0.00 | 0.00 | 0.00 | 40 | 1011.1 |
| 20260504211432 | 77 | 95 | 0.0 | 2.6 | 0.00 | 0.00 | 0.00 | 42 | 1011.1 |
| 20260504210930 | 78 | 80 | 0.9 | 3.5 | 0.00 | 0.00 | 0.00 | 40 | 1011.2 |
| 20260504210426 | 78 | 61 | 1.7 | 2.6 | 0.00 | 0.00 | 0.00 | 39 | 1011.0 |
| 20260504205924 | 78 | 246 | 0.9 | 1.7 | 0.00 | 0.00 | 0.00 | 39 | 1011.3 |
| 20260504205421 | 76 | 95 | 2.6 | 3.5 | 0.00 | 0.00 | 0.00 | 42 | 1011.2 |
| 20260504204919 | 75 | 85 | 1.7 | 3.5 | 0.00 | 0.00 | 0.00 | 42 | 1011.3 |
| 20260504204417 | 75 | 244 | 2.6 | 3.5 | 0.00 | 0.00 | 0.00 | 42 | 1011.2 |
| 20260504203916 | 77 | 256 | 1.7 | 3.5 | 0.00 | 0.00 | 0.00 | 40 | 1011.2 |
| 20260504203413 | 77 | 262 | 0.0 | 1.7 | 0.00 | 0.00 | 0.00 | 39 | 1011.2 |
| 20260504202909 | 77 | 234 | 0.9 | 1.7 | 0.00 | 0.00 | 0.00 | 41 | 1011.2 |
| 20260504202406 | 76 | 80 | 1.7 | 2.6 | 0.00 | 0.00 | 0.00 | 43 | 1011.4 |
| 20260504201903 | 76 | 104 | 1.7 | 1.7 | 0.00 | 0.00 | 0.00 | 43 | 1011.3 |
| 20260504201400 | 75 | 54 | 1.7 | 4.3 | 0.00 | 0.00 | 0.00 | 42 | 1011.5 |
| 20260504200857 | 74 | 234 | 0.9 | 2.6 | 0.00 | 0.00 | 0.00 | 42 | 1011.6 |
| 20260504200354 | 74 | 214 | 0.0 | 2.6 | 0.00 | 0.00 | 0.00 | 44 | 1011.6 |
| 20260504195851 | 74 | 238 | 1.7 | 3.5 | 0.00 | 0.00 | 0.00 | 43 | 1011.4 |
| 20260504195346 | 73 | 54 | 1.7 | 3.5 | 0.00 | 0.00 | 0.00 | 46 | 1011.5 |
| 20260504194843 | 73 | 274 | 1.7 | 3.5 | 0.00 | 0.00 | 0.00 | 47 | 1011.4 |
| 20260504194339 | 74 | 68 | 3.5 | 3.5 | 0.00 | 0.00 | 0.00 | 44 | 1011.3 |
| 20260504193835 | 74 | 255 | 0.9 | 3.5 | 0.00 | 0.00 | 0.00 | 47 | 1011.5 |
| 20260504193332 | 72 | 261 | 0.9 | 2.6 | 0.00 | 0.00 | 0.00 | 48 | 1011.5 |
| 20260504192831 | 72 | 234 | 1.7 | 3.5 | 0.00 | 0.00 | 0.00 | 49 | 1011.5 |
| 20260504192329 | 71 | 67 | 1.7 | 2.6 | 0.00 | 0.00 | 0.00 | 49 | 1011.6 |
| 20260504191827 | 71 | 102 | 2.6 | 2.6 | 0.00 | 0.00 | 0.00 | 48 | 1011.3 |
| 20260504191324 | 71 | 53 | 2.6 | 3.5 | 0.00 | 0.00 | 0.00 | 49 | 1011.6 |
| 20260504190819 | 71 | 112 | 2.6 | 4.3 | 0.00 | 0.00 | 0.00 | 51 | 1011.6 |
| 20260504190316 | 72 | 113 | 1.7 | 4.3 | 0.00 | 0.00 | 0.00 | 52 | 1011.5 |
| 20260504185813 | 72 | 119 | 0.0 | 1.7 | 0.00 | 0.00 | 0.00 | 48 | 1011.6 |
| 20260504185310 | 71 | 106 | 2.6 | 3.5 | 0.00 | 0.00 | 0.00 | 52 | 1011.5 |
| 20260504184806 | 71 | 59 | 1.7 | 3.5 | 0.00 | 0.00 | 0.00 | 54 | 1011.6 |
| 20260504184301 | 70 | 76 | 0.0 | 2.6 | 0.00 | 0.00 | 0.00 | 54 | 1011.6 |
| 20260504183757 | 70 | 245 | 1.7 | 1.7 | 0.00 | 0.00 | 0.00 | 52 | 1011.7 |
| 20260504183254 | 69 | 79 | 0.9 | 3.5 | 0.00 | 0.00 | 0.00 | 53 | 1011.5 |
| 20260504182753 | 69 | 62 | 0.9 | 3.5 | 0.00 | 0.00 | 0.00 | 57 | 1011.5 |
| 20260504182249 | 69 | 54 | 1.7 | 2.6 | 0.00 | 0.00 | 0.00 | 55 | 1011.6 |
| 20260504181747 | 68 | 67 | 1.7 | 2.6 | 0.00 | 0.00 | 0.00 | 57 | 1011.8 |
| 20260504181244 | 68 | 68 | 2.6 | 3.5 | 0.00 | 0.00 | 0.00 | 58 | 1011.6 |
| 20260504180743 | 69 | 85 | 1.7 | 3.5 | 0.00 | 0.00 | 0.00 | 55 | 1011.5 |
| 20260504180241 | 69 | 62 | 0.0 | 2.6 | 0.00 | 0.00 | 0.00 | 57 | 1011.5 |
| 20260504175739 | 67 | 44 | 0.0 | 1.7 | 0.00 | 0.00 | 0.00 | 56 | 1011.6 |
| 20260504175235 | 67 | 188 | 0.9 | 1.7 | 0.00 | 0.00 | 0.00 | 57 | 1011.5 |
| 20260504174733 | 66 | 64 | 1.7 | 2.6 | 0.00 | 0.00 | 0.00 | 60 | 1011.4 |
| 20260504174231 | 66 | 95 | 1.7 | 2.6 | 0.00 | 0.00 | 0.00 | 62 | 1011.7 |
| 20260504173727 | 65 | 102 | 1.7 | 3.5 | 0.00 | 0.00 | 0.00 | 62 | 1011.7 |
| 20260504173224 | 66 | 114 | 2.6 | 3.5 | 0.00 | 0.00 | 0.00 | 61 | 1011.7 |
| 20260504172721 | 66 | 79 | 1.7 | 1.7 | 0.00 | 0.00 | 0.00 | 64 | 1011.8 |
| 20260504172217 | 65 | 133 | 2.6 | 2.6 | 0.00 | 0.00 | 0.00 | 63 | 1011.5 |
| 20260504171714 | 65 | 103 | 0.0 | 2.6 | 0.00 | 0.00 | 0.00 | 65 | 1011.6 |
| 20260504171211 | 64 | 184 | 0.9 | 1.7 | 0.00 | 0.00 | 0.00 | 64 | 1011.6 |
| 20260504170708 | 64 | 121 | 2.6 | 3.5 | 0.00 | 0.00 | 0.00 | 69 | 1011.6 |
| 20260504170205 | 63 | 67 | 0.0 | 1.7 | 0.00 | 0.00 | 0.00 | 69 | 1011.4 |
| 20260504160124 | 58 | 87 | 0.9 | 3.5 | 0.00 | 0.00 | 0.00 | 79 | 1011.6 |
| 20260504151051 | 54 | 160 | 0.0 | 1.7 | 0.00 | 0.00 | 0.00 | 81 | 1011.4 |
| 20260504150548 | 53 | 68 | 1.7 | 1.7 | 0.00 | 0.00 | 0.00 | 83 | 1011.4 |
| 20260504141014 | 53 | 33 | 1.7 | 2.6 | 0.00 | 0.00 | 0.00 | 82 | 1011.0 |
| 20260504140511 | 53 | 41 | 1.7 | 1.7 | 0.00 | 0.00 | 0.00 | 81 | 1011.1 |
| 20260504130435 | 53 | 40 | 1.7 | 1.7 | 0.00 | 0.00 | 0.00 | 81 | 1010.4 |
| 20260504110322 | 54 | 61 | 0.9 | 1.7 | 0.00 | 0.00 | 0.00 | 78 | 1010.4 |
| 20260504100240 | 55 | 35 | 0.9 | 1.7 | 0.00 | 0.00 | 0.00 | 75 | 1010.2 |
| 20260504081633 | 57 | 37 | 0.9 | 2.6 | 0.00 | 0.00 | 0.00 | 70 | 1010.3 |
| 20260504081129 | 57 | 49 | 0.9 | 1.7 | 0.00 | 0.00 | 0.00 | 70 | 1010.4 |
| 20260504080626 | 57 | 89 | 0.0 | 1.7 | 0.00 | 0.00 | 0.00 | 69 | 1010.4 |
| 20260504080122 | 58 | 35 | 0.0 | 1.7 | 0.00 | 0.00 | 0.00 | 68 | 1010.4 |
| 20260504050439 | 59 | 111 | 0.0 | 1.7 | 0.00 | 0.00 | 0.00 | 71 | 1010.6 |
| 20260504045936 | 59 | 13 | 0.0 | 1.7 | 0.00 | 0.00 | 0.00 | 71 | 1010.5 |
| 20260504045431 | 59 | 35 | 0.9 | 1.7 | 0.00 | 0.00 | 0.00 | 72 | 1010.6 |
| 20260504044928 | 59 | 53 | 0.9 | 1.7 | 0.00 | 0.00 | 0.00 | 72 | 1010.6 |
| 20260504044425 | 59 | 169 | 0.0 | 1.7 | 0.00 | 0.00 | 0.00 | 73 | 1010.5 |
| 20260504043922 | 59 | 32 | 1.7 | 1.7 | 0.00 | 0.00 | 0.00 | 74 | 1010.5 |
| 20260504043419 | 59 | 37 | 0.0 | 1.7 | 0.00 | 0.00 | 0.00 | 73 | 1010.4 |
| 20260504042917 | 59 | 23 | 0.9 | 1.7 | 0.00 | 0.00 | 0.00 | 73 | 1010.5 |
| 20260504042413 | 59 | 51 | 0.0 | 1.7 | 0.00 | 0.00 | 0.00 | 72 | 1010.5 |
| 20260504041910 | 59 | 56 | 1.7 | 1.7 | 0.00 | 0.00 | 0.00 | 74 | 1010.5 |
| 20260504041406 | 59 | 50 | 0.0 | 1.7 | 0.00 | 0.00 | 0.00 | 75 | 1010.5 |
| 20260504040902 | 59 | 27 | 0.0 | 1.7 | 0.00 | 0.00 | 0.00 | 75 | 1010.4 |
| 20260504040400 | 59 | 41 | 0.0 | 0.9 | 0.00 | 0.00 | 0.00 | 76 | 1010.4 |
| 20260504035855 | 60 | 29 | 0.9 | 1.7 | 0.00 | 0.00 | 0.00 | 76 | 1010.6 |
| 20260504035353 | 60 | 44 | 0.0 | 1.7 | 0.00 | 0.00 | 0.00 | 76 | 1010.4 |
| 20260504034850 | 60 | 83 | 0.0 | 1.7 | 0.00 | 0.00 | 0.00 | 77 | 1010.5 |
| 20260504034347 | 60 | 17 | 0.9 | 1.7 | 0.00 | 0.00 | 0.00 | 76 | 1010.5 |
| 20260504033844 | 61 | 49 | 0.0 | 0.9 | 0.00 | 0.00 | 0.00 | 75 | 1010.5 |
| 20260504033342 | 61 | 45 | 0.9 | 1.7 | 0.00 | 0.00 | 0.00 | 74 | 1010.5 |
| 20260504032839 | 61 | 26 | 0.0 | 0.9 | 0.00 | 0.00 | 0.00 | 73 | 1010.2 |
| 20260504032336 | 61 | 80 | 1.7 | 1.7 | 0.00 | 0.00 | 0.00 | 74 | 1010.4 |
| 20260504031833 | 62 | 53 | 0.0 | 1.7 | 0.00 | 0.00 | 0.00 | 73 | 1010.4 |
| 20260504031330 | 62 | 10 | 0.9 | 1.7 | 0.00 | 0.00 | 0.00 | 72 | 1010.5 |
| 20260504030826 | 62 | 11 | 0.0 | 0.9 | 0.00 | 0.00 | 0.00 | 69 | 1010.3 |
| 20260504030324 | 63 | 43 | 0.0 | 1.7 | 0.00 | 0.00 | 0.00 | 69 | 1010.3 |
| 20260504025819 | 63 | 59 | 0.9 | 1.7 | 0.00 | 0.00 | 0.00 | 66 | 1010.5 |
| 20260504025317 | 64 | 67 | 0.9 | 1.7 | 0.00 | 0.00 | 0.00 | 64 | 1010.6 |
| 20260504024813 | 64 | 89 | 0.0 | 0.0 | 0.00 | 0.00 | 0.00 | 64 | 1010.2 |
| 20260504024310 | 65 | 41 | 0.9 | 1.7 | 0.00 | 0.00 | 0.00 | 61 | 1010.3 |
| 20260504023806 | 65 | 49 | 0.0 | 1.7 | 0.00 | 0.00 | 0.00 | 59 | 1010.3 |
| 20260504023303 | 65 | 62 | 0.9 | 1.7 | 0.00 | 0.00 | 0.00 | 60 | 1010.6 |
| 20260504022759 | 66 | 68 | 1.7 | 1.7 | 0.00 | 0.00 | 0.00 | 59 | 1010.6 |
| 20260504022255 | 67 | 55 | 0.0 | 1.7 | 0.00 | 0.00 | 0.00 | 57 | 1010.5 |
| 20260504021752 | 67 | 101 | 1.7 | 1.7 | 0.00 | 0.00 | 0.00 | 56 | 1010.6 |
| 20260504021250 | 68 | 89 | 0.0 | 1.7 | 0.00 | 0.00 | 0.00 | 53 | 1010.7 |
| 20260504020747 | 68 | 28 | 0.9 | 1.7 | 0.00 | 0.00 | 0.00 | 53 | 1010.8 |
| 20260504020243 | 68 | 74 | 2.6 | 3.5 | 0.00 | 0.00 | 0.00 | 52 | 1010.9 |
| 20260504015739 | 68 | 115 | 1.7 | 1.7 | 0.00 | 0.00 | 0.00 | 55 | 1011.1 |
| 20260504015236 | 68 | 54 | 0.9 | 0.9 | 0.00 | 0.00 | 0.00 | 52 | 1010.7 |
| 20260504014732 | 69 | 87 | 0.9 | 1.7 | 0.00 | 0.00 | 0.00 | 54 | 1010.9 |
| 20260504014228 | 70 | 98 | 1.7 | 1.7 | 0.00 | 0.00 | 0.00 | 53 | 1010.8 |
| 20260504013726 | 70 | 43 | 1.7 | 1.7 | 0.00 | 0.00 | 0.00 | 50 | 1010.8 |
| 20260504013224 | 71 | 71 | 0.9 | 1.7 | 0.00 | 0.00 | 0.00 | 50 | 1011.0 |
| 20260504012720 | 71 | 104 | 0.0 | 1.7 | 0.00 | 0.00 | 0.00 | 52 | 1011.3 |
| 20260504012218 | 73 | 86 | 0.9 | 1.7 | 0.00 | 0.00 | 0.00 | 46 | 1011.3 |
| 20260504011715 | 74 | 78 | 0.0 | 1.7 | 0.00 | 0.00 | 0.00 | 49 | 1011.2 |
| 20260504011211 | 74 | 132 | 0.9 | 2.6 | 0.00 | 0.00 | 0.00 | 51 | 1011.2 |
| 20260504010707 | 73 | 83 | 0.9 | 1.7 | 0.00 | 0.00 | 0.00 | 49 | 1011.3 |
| 20260504010203 | 72 | 71 | 0.9 | 2.6 | 0.00 | 0.00 | 0.00 | 50 | 1011.4 |
| 20260504005700 | 71 | 71 | 1.7 | 3.5 | 0.00 | 0.00 | 0.00 | 53 | 1011.6 |
| 20260504005157 | 72 | 71 | 0.9 | 2.6 | 0.00 | 0.00 | 0.00 | 53 | 1011.5 |
| 20260504004655 | 71 | 99 | 0.9 | 2.6 | 0.00 | 0.00 | 0.00 | 55 | 1011.5 |
| 20260504004151 | 73 | 77 | 3.5 | 4.3 | 0.00 | 0.00 | 0.00 | 50 | 1011.5 |
| 20260504003648 | 72 | 95 | 0.0 | 3.5 | 0.00 | 0.00 | 0.00 | 52 | 1011.6 |
| 20260504003145 | 74 | 112 | 1.7 | 2.6 | 0.00 | 0.00 | 0.00 | 50 | 1011.6 |
| 20260504002641 | 73 | 205 | 0.0 | 1.7 | 0.00 | 0.00 | 0.00 | 50 | 1011.8 |
| 20260504002139 | 74 | 153 | 1.7 | 3.5 | 0.00 | 0.00 | 0.00 | 48 | 1011.7 |
| 20260504001637 | 77 | 116 | 0.9 | 1.7 | 0.00 | 0.00 | 0.00 | 49 | 1011.7 |
| 20260504001132 | 73 | 89 | 0.0 | 1.7 | 0.00 | 0.00 | 0.00 | 51 | 1011.9 |
| 20260504000630 | 73 | 106 | 1.7 | 2.6 | 0.00 | 0.00 | 0.00 | 53 | 1011.8 |
| 20260504000127 | 74 | 100 | 1.7 | 4.3 | 0.00 | 0.00 | 0.00 | 50 | 1012.0 |
| 20260503235625 | 74 | 70 | 1.7 | 3.5 | 0.00 | 0.00 | 0.00 | 52 | 1012.0 |
| 20260503235122 | 75 | 116 | 2.6 | 3.5 | 0.00 | 0.00 | 0.00 | 49 | 1012.0 |
| 20260503234620 | 73 | 97 | 1.7 | 2.6 | 0.00 | 0.00 | 0.00 | 50 | 1012.0 |
| 20260503234118 | 74 | 79 | 3.5 | 4.3 | 0.00 | 0.00 | 0.00 | 49 | 1012.1 |
| 20260503233614 | 73 | 122 | 2.6 | 3.5 | 0.00 | 0.00 | 0.00 | 51 | 1012.2 |
| 20260503233110 | 73 | 102 | 2.6 | 3.5 | 0.00 | 0.00 | 0.00 | 49 | 1012.2 |
| 20260503232607 | 73 | 109 | 1.7 | 2.6 | 0.00 | 0.00 | 0.00 | 51 | 1012.2 |
| 20260503232104 | 73 | 91 | 2.6 | 3.5 | 0.00 | 0.00 | 0.00 | 52 | 1012.4 |
| 20260503231602 | 72 | 62 | 3.5 | 3.5 | 0.00 | 0.00 | 0.00 | 52 | 1012.5 |
| 20260503231059 | 71 | 81 | 1.7 | 2.6 | 0.00 | 0.00 | 0.00 | 53 | 1012.7 |
| 20260503230555 | 72 | 54 | 0.9 | 7.0 | 0.00 | 0.00 | 0.00 | 54 | 1012.7 |
| 20260503230053 | 73 | 85 | 1.7 | 4.3 | 0.00 | 0.00 | 0.00 | 52 | 1012.7 |
| 20260503225549 | 73 | 79 | 3.5 | 4.3 | 0.00 | 0.00 | 0.00 | 52 | 1012.8 |
| 20260503225044 | 74 | 95 | 1.7 | 5.2 | 0.00 | 0.00 | 0.00 | 50 | 1012.9 |
| 20260503224542 | 73 | 128 | 0.0 | 3.5 | 0.00 | 0.00 | 0.00 | 51 | 1012.8 |
| 20260503224040 | 73 | 63 | 1.7 | 3.5 | 0.00 | 0.00 | 0.00 | 51 | 1012.8 |
| 20260503223538 | 73 | 72 | 3.5 | 3.5 | 0.00 | 0.00 | 0.00 | 51 | 1012.9 |
| 20260503223033 | 73 | 102 | 2.6 | 2.6 | 0.00 | 0.00 | 0.00 | 52 | 1012.9 |
| 20260503222532 | 72 | 58 | 1.7 | 3.5 | 0.00 | 0.00 | 0.00 | 53 | 1013.1 |
| 20260503222029 | 71 | 84 | 1.7 | 3.5 | 0.00 | 0.00 | 0.00 | 55 | 1013.1 |
| 20260503221527 | 71 | 65 | 2.6 | 3.5 | 0.00 | 0.00 | 0.00 | 55 | 1013.3 |
| 20260503221025 | 70 | 92 | 2.6 | 5.2 | 0.00 | 0.00 | 0.00 | 57 | 1013.3 |
| 20260503220520 | 70 | 76 | 3.5 | 5.2 | 0.00 | 0.00 | 0.00 | 57 | 1013.3 |
| 20260503220017 | 71 | 68 | 2.6 | 4.3 | 0.00 | 0.00 | 0.00 | 55 | 1013.5 |
| 20260503215514 | 71 | 66 | 2.6 | 3.5 | 0.00 | 0.00 | 0.00 | 55 | 1013.4 |